Total_Precipitation_Accumulation
1.94 2.24 1.86 1.13 0.94 0.86 0.73 0.67 0.59 0.58 0.57 0.65 0.67 0.71 0.76 0.74 0.71 0.77 0.88 0.96 0.99 1.02 1.12 1.41 1.85 2.15 2.59 3.06 3.26 3.37 3.38 3.54 3.83 3.70 3.41 3.14 2.86 2.61 2.40 2.32 2.22 2.02 1.88 1.76
1.89 1.62 0.99 0.76 0.84 0.93 0.92 0.84 0.67 0.62 0.57 0.70 0.70 0.73 0.69 0.69 0.69 0.71 0.79 0.87 0.90 0.91 1.05 1.32 1.63 1.97 2.22 2.80 3.16 3.23 3.42 3.58 3.76 3.65 3.46 3.33 3.21 2.99 2.72 2.60 2.36 2.19 2.02 1.86
1.40 1.00 0.80 1.00 1.10 1.08 1.02 0.87 0.68 0.70 0.78 0.75 0.74 0.81 0.66 0.61 0.60 0.61 0.74 0.82 0.83 0.85 1.00 1.22 1.42 1.69 1.88 2.28 2.74 2.94 3.08 3.38 3.57 3.71 3.96 3.90 3.71 3.33 2.83 2.55 2.43 2.28 2.26 2.13
1.18 0.81 0.95 1.24 1.24 1.08 1.03 0.68 0.67 0.73 0.94 1.00 0.81 1.04 0.74 0.62 0.59 0.59 0.72 0.80 0.82 0.83 0.95 1.15 1.30 1.41 1.63 1.88 2.31 2.70 2.93 3.15 3.29 3.39 3.60 3.70 3.52 3.14 2.71 2.45 2.47 2.51 2.45 2.42
1.19 0.85 1.03 1.32 1.10 0.98 0.92 0.63 0.75 0.86 1.02 1.06 0.75 0.92 0.81 0.62 0.67 0.67 0.73 0.81 0.83 0.89 1.02 1.13 1.20 1.22 1.38 1.63 2.04 2.42 2.70 2.95 3.06 3.11 3.19 3.38 3.44 3.30 3.09 2.79 2.64 2.62 2.57 2.48
0.89 0.86 1.10 1.18 0.98 0.98 0.98 1.03 1.16 1.29 1.66 1.69 0.75 0.73 0.78 0.77 0.85 0.76 0.72 0.82 0.87 1.00 1.11 1.12 1.15 1.18 1.27 1.43 1.73 2.09 2.37 2.70 2.90 2.93 3.10 3.17 3.13 3.19 3.13 2.82 2.71 2.63 2.68 2.61
1.14 1.11 1.08 1.18 1.45 1.40 1.49 2.03 2.60 2.61 2.42 1.47 0.50 0.56 0.84 0.78 0.80 0.81 0.82 0.87 0.89 0.94 1.01 1.01 1.03 1.08 1.20 1.33 1.48 1.76 1.92 2.18 2.55 2.68 2.80 2.93 2.96 2.92 2.98 2.88 2.74 2.65 2.53 2.46
1.29 1.34 1.04 1.15 1.60 1.70 1.53 1.83 2.04 1.81 1.24 0.73 0.46 0.66 0.83 0.73 0.73 0.76 0.78 0.83 0.91 0.98 1.02 1.03 1.02 1.08 1.21 1.28 1.36 1.53 1.67 1.82 2.12 2.37 2.40 2.51 2.71 2.73 2.66 2.67 2.59 2.54 2.42 2.32
1.07 1.07 0.82 0.90 1.11 1.30 1.47 1.41 1.14 1.43 1.04 0.80 0.70 0.64 0.62 0.53 0.57 0.63 0.65 0.68 0.85 0.97 0.98 1.03 1.07 1.14 1.19 1.23 1.30 1.40 1.50 1.56 1.72 2.03 2.17 2.23 2.32 2.35 2.26 2.23 2.22 2.22 2.23 2.21
1.06 1.11 0.87 0.90 1.18 1.32 1.29 1.16 1.24 1.71 1.48 1.08 0.68 0.58 0.76 0.68 0.67 0.67 0.68 0.71 0.83 0.94 0.99 1.04 1.09 1.07 1.06 1.11 1.21 1.33 1.35 1.35 1.42 1.60 1.79 1.97 2.04 2.03 2.05 2.01 1.92 1.88 1.84 1.86
0.88 1.17 1.14 1.09 1.31 1.22 1.08 1.26 1.36 1.37 1.16 1.17 0.86 0.79 0.80 0.73 0.73 0.74 0.80 0.81 0.86 0.92 1.03 1.12 1.14 1.08 1.04 1.08 1.18 1.26 1.23 1.22 1.26 1.35 1.45 1.58 1.73 1.81 1.85 1.82 1.68 1.63 1.57 1.54
0.73 1.05 1.15 0.93 0.76 0.71 0.84 0.97 1.16 1.50 1.17 0.92 0.92 0.84 0.63 0.62 0.67 0.72 0.82 0.83 0.84 0.87 0.95 1.04 1.06 1.03 1.05 1.10 1.18 1.25 1.21 1.19 1.17 1.21 1.26 1.31 1.43 1.58 1.65 1.71 1.63 1.50 1.46 1.38
0.98 1.19 1.26 1.09 0.96 0.84 0.86 0.77 0.90 1.19 1.36 1.03 1.00 0.86 0.58 0.53 0.58 0.66 0.77 0.81 0.81 0.83 0.84 0.87 0.88 0.94 1.00 1.07 1.13 1.21 1.18 1.12 1.08 1.09 1.10 1.17 1.27 1.37 1.42 1.42 1.47 1.42 1.44 1.34
1.19 1.14 1.07 1.10 0.99 0.91 0.83 0.68 0.79 1.37 1.64 1.01 0.78 0.74 0.62 0.63 0.65 0.68 0.73 0.77 0.77 0.77 0.72 0.72 0.76 0.84 0.90 0.98 1.04 1.05 1.07 1.07 1.07 1.05 1.01 1.06 1.10 1.23 1.28 1.25 1.27 1.28 1.32 1.33
0.90 0.99 0.69 0.59 0.47 0.52 0.61 0.64 0.73 1.05 1.00 1.00 0.71 0.63 0.71 0.73 0.76 0.75 0.70 0.69 0.65 0.64 0.64 0.66 0.68 0.71 0.78 0.82 0.86 0.89 0.92 0.96 1.00 1.01 0.98 0.99 0.99 1.06 1.12 1.09 1.11 1.15 1.19 1.27
0.58 0.77 0.64 0.56 0.39 0.42 0.53 0.53 0.57 0.68 0.74 0.77 0.61 0.67 0.67 0.67 0.62 0.60 0.57 0.56 0.55 0.57 0.61 0.60 0.59 0.59 0.60 0.64 0.69 0.74 0.80 0.85 0.92 0.92 0.93 0.93 0.93 0.97 1.04 1.02 1.02 1.05 1.12 1.22
0.51 0.63 0.79 0.64 0.41 0.52 0.69 0.66 0.67 0.72 0.76 0.77 0.87 0.81 0.61 0.57 0.58 0.58 0.54 0.49 0.49 0.48 0.50 0.51 0.52 0.54 0.54 0.54 0.56 0.61 0.66 0.71 0.79 0.85 0.88 0.91 0.95 0.98 1.02 1.02 1.02 1.07 1.14 1.25
0.47 0.60 0.92 0.74 0.51 0.69 0.68 0.51 0.56 0.63 0.68 0.68 0.74 0.68 0.60 0.61 0.59 0.55 0.52 0.49 0.45 0.43 0.46 0.48 0.48 0.48 0.48 0.47 0.46 0.49 0.55 0.61 0.67 0.75 0.83 0.86 0.91 0.93 0.94 1.00 1.03 1.08 1.13 1.20
0.33 0.66 1.05 0.88 0.63 0.47 0.39 0.38 0.57 0.66 0.71 0.66 0.65 0.60 0.57 0.50 0.44 0.45 0.45 0.47 0.49 0.46 0.46 0.47 0.46 0.46 0.44 0.41 0.41 0.45 0.52 0.56 0.59 0.70 0.82 0.87 0.94 0.97 0.98 1.04 1.05 1.07 1.13 1.16
0.29 0.56 1.05 0.92 0.76 0.54 0.46 0.31 0.35 0.50 0.74 0.52 0.52 0.56 0.55 0.49 0.57 0.59 0.52 0.49 0.47 0.43 0.42 0.43 0.41 0.40 0.43 0.45 0.46 0.50 0.56 0.59 0.62 0.69 0.78 0.85 0.94 1.06 1.09 1.09 1.07 1.03 1.07 1.13
0.46 0.68 0.87 0.74 0.71 0.46 0.38 0.25 0.23 0.64 0.89 0.54 0.53 0.56 0.54 0.60 0.70 0.64 0.56 0.51 0.48 0.47 0.45 0.43 0.41 0.43 0.50 0.55 0.56 0.58 0.63 0.69 0.71 0.73 0.78 0.82 0.86 0.94 1.01 1.01 1.01 1.01 0.99 0.99
0.43 0.52 0.50 0.51 0.68 0.57 0.35 0.29 0.56 0.76 0.52 0.46 0.45 0.48 0.51 0.55 0.52 0.53 0.54 0.52 0.48 0.50 0.47 0.43 0.42 0.45 0.46 0.52 0.58 0.60 0.63 0.67 0.68 0.69 0.76 0.84 0.84 0.86 0.90 0.92 0.95 0.98 0.95 0.92
0.41 0.52 0.56 0.57 0.67 0.61 0.49 0.53 0.56 0.48 0.42 0.39 0.42 0.44 0.43 0.47 0.47 0.49 0.51 0.48 0.46 0.48 0.47 0.43 0.42 0.42 0.39 0.42 0.49 0.59 0.62 0.64 0.67 0.68 0.74 0.80 0.81 0.84 0.87 0.87 0.89 0.89 0.88 0.84
0.33 0.26 0.35 0.42 0.43 0.40 0.39 0.36 0.37 0.38 0.40 0.37 0.37 0.36 0.35 0.39 0.41 0.43 0.44 0.44 0.43 0.43 0.44 0.44 0.41 0.39 0.40 0.41 0.42 0.49 0.54 0.58 0.63 0.66 0.69 0.72 0.77 0.78 0.78 0.80 0.83 0.87 0.88 0.85
0.33 0.26 0.29 0.38 0.34 0.31 0.31 0.31 0.32 0.30 0.26 0.24 0.23 0.24 0.29 0.34 0.37 0.41 0.44 0.46 0.47 0.47 0.46 0.47 0.45 0.41 0.42 0.40 0.40 0.41 0.44 0.49 0.56 0.61 0.63 0.64 0.66 0.70 0.74 0.75 0.79 0.85 0.86 0.93
0.37 0.39 0.45 0.48 0.37 0.40 0.37 0.27 0.23 0.21 0.19 0.19 0.18 0.18 0.21 0.27 0.31 0.31 0.35 0.41 0.47 0.48 0.46 0.45 0.42 0.40 0.42 0.41 0.43 0.43 0.43 0.47 0.51 0.54 0.57 0.59 0.61 0.64 0.67 0.70 0.71 0.79 0.82 0.89